Location: Cazavet
(43.0017°N, 1.0431°E)
Time: 21:59:00
(UTC+00:00)

NOSS 3-2 (A) - Pass Details

Date: 18 January 2026
Orbit: 669 x 1534 km, 63.4° (Epoch: 2 January)

Event Time Altitude Azimuth Distance (km) Brightness Sun altitude
Rises 06:45:09 0° 206° (SSW) 3,029 6.1 -7.1°
Reaches altitude 10° 06:47:21 10° 204° (SSW) 2,158 5.3 -6.7°
Maximum altitude 06:52:09 68° 122° (ESE) 825 3.5 -5.9°
Drops below altitude 10° 06:57:50 10° 40° (NE) 2,539 5.9 -4.9°
Sets 07:00:36 0° 38° (NE) 3,613 6.7 -4.5°
